User: anonymous
Location: Unspecified
(0.0000°N, 0.0000°E)
Time: 15:51:30
(UTC+02:00)
Language:

Cosmos 1833 Rocket - Orbit

View from above orbital plane
View from above orbital plane
View from above satellite
View from above satellite

Ground track
Ground track

The orbit data is extracted from the following two-line orbital elements,

1 17590U 87027B   14272.03061751  .00000208  00000-0  12819-3 0  7942
2 17590 071.0024 079.0880 0005244 351.9813 008.1226 14.16647851423602
Epoch (UTC): 29 September 2014 00:44:05
Eccentricity: 0.0005244
inclination: 71.0024°
perigee height: 833 km
apogee height: 840 km
right ascension of ascending node: 79.0880°
argument of perigee: 351.9813°
revolutions per day: 14.16647851
mean anomaly at epoch: 8.1226°
orbit number at epoch: 42360

The dashed part of the orbit path shows where the satellite is in the earth's shadow,  

DLR